Weather History for Cancun, Mexico

Change the Weather History Date:

Saturday, August 17, 2013

  Actual Average Record
Temperature  
Mean Temperature 82 °F -  
Max Temperature 87 °F 89 °F 95 °F (2004)
Min Temperature 77 °F 73 °F 69 °F (2011)
Cooling Degree Days 17    
Growing Degree Days 32 (Base 50)    
Moisture  
Dew Point 75 °F    
Average Humidity 78    
Maximum Humidity 100    
Minimum Humidity 66    
Precipitation  
Precipitation 0.00 in - - ()
Sea Level Pressure  
Sea Level Pressure 29.95 in    
Wind  
Wind Speed 10 mph ()    
Max Wind Speed 17 mph    
Max Gust Speed -    
Visibility 6.5 miles    
Events      
Averages and records for this station are not official NWS values.
T = Trace of Precipitation, MM = Missing Value Source: Averaged Metar Reports

Daily Weather History Graph

Daily Weather History Graph

Search for Another Location

Airport:

Trip Planner

Search our weather history database for the weather conditions in past years. The results will help you decide how hot, cold, wet, or windy it might be!

Date:

Astronomy

Aug. 17, 2013 Rise Set
Actual Time 6:27 AM CDT 7:15 PM CDT
Civil Twilight 6:04 AM CDT 7:38 PM CDT
Nautical Twilight 5:36 AM CDT 8:05 PM CDT
Astronomical Twilight 5:09 AM CDT 8:33 PM CDT
Moon 4:18 PM CDT (8/17) 2:43 AM CDT (8/17)
Length of Visible Light 13h 34m
Length of Day
12h 48m
Waxing Gibbous, 84% of the Moon is Illuminated
Aug 17
Waxing Gibbous
Aug 20
Full
Aug 28
Last Quarter
Sep 5
New
Sep 12
First Quarter

Hourly Weather History & Observations

Time (CDT) Temp. Heat Index Dew Point Humidity Pressure Visibility Wind Dir Wind Speed Gust Speed Precip Events Conditions
12:49 AM 80.6 °F 86.2 °F 75.2 °F 84% 29.94 in 6.0 mi SE 13.8 mph - N/A   Mostly Cloudy
1:43 AM 82.4 °F 89.5 °F 75.2 °F 79% 29.94 in 6.0 mi SE 15.0 mph - N/A   Mostly Cloudy
2:41 AM 80.6 °F 86.2 °F 75.2 °F 84% 29.93 in 6.0 mi SE 12.7 mph - N/A   Scattered Clouds
3:43 AM 80.6 °F 86.2 °F 75.2 °F 84% 29.91 in 6.0 mi SE 11.5 mph - N/A   Scattered Clouds
4:41 AM 80.6 °F 86.2 °F 75.2 °F 84% 29.92 in 6.0 mi SE 12.7 mph - N/A   Scattered Clouds
5:41 AM 80.6 °F 85.4 °F 73.4 °F 79% 29.93 in 6.0 mi SE 11.5 mph - N/A   Scattered Clouds
6:49 AM 80.6 °F 85.4 °F 73.4 °F 79% 29.93 in 6.0 mi SSE 11.5 mph - N/A   Scattered Clouds
7:40 AM 82.4 °F 89.5 °F 75.2 °F 79% 29.95 in 7.0 mi SSE 10.4 mph - N/A   Scattered Clouds
8:55 AM 84.2 °F 92.3 °F 75.2 °F 74% 29.97 in 7.0 mi SE 13.8 mph - N/A   Scattered Clouds
9:43 AM 86.0 °F 95.1 °F 75.2 °F 70% 29.98 in 7.0 mi SSE 17.3 mph - N/A   Partly Cloudy
10:55 AM 86.0 °F 95.1 °F 75.2 °F 70% 29.97 in 7.0 mi SE 13.8 mph - N/A   Partly Cloudy
11:40 AM 87.8 °F 97.6 °F 75.2 °F 66% 29.98 in 7.0 mi SSE 13.8 mph - N/A   Scattered Clouds
12:44 PM 87.8 °F 97.6 °F 75.2 °F 66% 29.97 in 7.0 mi SSE 15.0 mph - N/A   Scattered Clouds
1:40 PM 87.8 °F 99.7 °F 77.0 °F 70% 29.96 in 7.0 mi SE 10.4 mph - N/A   Scattered Clouds
2:44 PM 87.8 °F 97.6 °F 75.2 °F 66% 29.94 in 6.0 mi SSE 10.4 mph - N/A   Scattered Clouds
3:44 PM 87.8 °F 97.6 °F 75.2 °F 66% 29.94 in 6.0 mi SE 11.5 mph - N/A   Scattered Clouds
4:41 PM 86.0 °F 95.1 °F 75.2 °F 70% 29.94 in 6.0 mi SSE 8.1 mph - N/A   Scattered Clouds
5:42 PM 86.0 °F 96.9 °F 77.0 °F 74% 29.94 in 6.0 mi ESE 6.9 mph - N/A   Scattered Clouds
6:43 PM 84.2 °F 92.3 °F 75.2 °F 74% 29.94 in 6.0 mi ESE 6.9 mph - N/A   Scattered Clouds
7:40 PM 80.6 °F 86.2 °F 75.2 °F 84% 29.96 in 7.0 mi ESE 4.6 mph - N/A   Partly Cloudy
8:43 PM 80.6 °F 86.2 °F 75.2 °F 84% 29.96 in 7.0 mi ESE 3.5 mph - N/A   Scattered Clouds
9:43 PM 80.6 °F 87.1 °F 77.0 °F 89% 29.98 in 7.0 mi East 3.5 mph - N/A   Mostly Cloudy
10:44 PM 77.0 °F - 77.0 °F 100% 29.98 in 7.0 mi ENE 3.5 mph - N/A   Scattered Clouds
11:42 PM 78.8 °F - 75.2 °F 89% 29.98 in 7.0 mi ENE 3.5 mph - N/A   Scattered Clouds